EW4052 Weather Reports


time (UTC)temp
F
wind
direction
speed
knots
gust
knots
rain 1hr
in
rain 24hr
in
rain mn
in
humidity
%
barometer
mb
20260507093042 38 20 0.0 0.0 0.00 0.00 0.00 66 1012.6
20260507091539 39 20 0.0 0.0 0.00 0.00 0.00 64 1012.6
20260507090036 40 20 0.0 0.0 0.00 0.00 0.00 64 1012.9
20260507084535 40 20 0.0 0.0 0.00 0.00 0.00 66 1013.3
20260507083028 40 20 0.0 0.0 0.00 0.00 0.00 66 1013.5
20260507081527 40 24 0.9 5.2 0.00 0.00 0.00 65 1013.8
20260507080024 38 355 0.0 0.0 0.00 0.00 0.00 65 1013.7
20260507074524 37 355 0.0 0.0 0.00 0.00 0.00 67 1013.8
20260507073025 37 355 0.0 0.0 0.00 0.00 0.00 67 1013.7
20260507071522 37 355 0.0 0.0 0.00 0.00 0.00 66 1013.9
20260507070020 37 355 0.0 0.0 0.00 0.00 0.00 66 1014.1
20260507064519 38 355 0.0 0.0 0.00 0.00 0.00 64 1014.1
20260507063018 38 355 0.0 0.0 0.00 0.00 0.00 64 1014.1
20260507061517 37 360 0.0 0.0 0.00 0.00 0.00 66 1014.1
20260507060023 37 360 0.0 0.0 0.00 0.00 0.00 66 1014.2
20260507054514 36 360 0.0 0.0 0.00 0.00 0.00 66 1014.4
20260507053011 37 360 0.0 0.0 0.00 0.00 0.00 65 1014.6
20260507051508 38 360 0.0 0.0 0.00 0.00 0.00 67 1014.7
20260507050006 39 360 0.0 0.0 0.00 0.00 0.00 66 1014.7
20260507044504 40 360 0.0 0.0 0.00 0.00 0.00 62 1014.8
20260507043002 41 360 0.0 0.0 0.00 0.00 0.00 60 1014.9
20260507041501 41 26 0.0 0.0 0.00 0.00 0.00 60 1015.0
20260507040100 42 26 0.0 0.0 0.00 0.00 0.00 59 1015.1
20260507034614 44 26 0.0 5.2 0.00 0.00 0.00 56 1015.2
20260507033059 45 5 0.0 0.0 0.00 0.00 0.00 53 1015.3
20260507031559 45 360 1.7 6.1 0.00 0.00 0.00 54 1015.4
20260507024600 46 341 3.5 5.2 0.00 0.00 0.00 55 1015.4
20260507023057 47 355 4.3 7.0 0.00 0.00 0.00 55 1015.3
20260507021557 47 311 1.7 4.3 0.00 0.00 0.00 54 1015.2
20260507020055 47 290 0.0 0.0 0.00 0.00 0.00 53 1015.1
20260507014558 48 286 0.0 0.0 0.00 0.00 0.00 51 1015.0
20260507013101 48 283 0.0 0.0 0.00 0.00 0.00 50 1014.9
20260507011557 49 283 0.0 0.0 0.00 0.00 0.00 48 1014.9
20260507010053 49 281 0.0 2.6 0.00 0.00 0.00 48 1015.0
20260507004552 50 255 6.1 9.6 0.00 0.00 0.00 48 1015.0
20260507003052 50 265 7.0 11.3 0.00 0.00 0.00 47 1015.0
20260507001552 51 239 5.2 17.4 0.00 0.00 0.00 45 1015.0
20260507000054 52 249 9.6 14.8 0.00 0.00 0.00 44 1015.0
20260506234554 52 240 9.6 16.5 0.00 0.00 0.00 45 1015.1
20260506233048 51 259 9.6 16.5 0.00 0.00 0.00 47 1015.3
20260506231547 51 248 8.7 13.9 0.00 0.00 0.00 47 1015.3
20260506230047 51 242 11.3 18.2 0.00 0.00 0.00 43 1015.3
20260506224600 50 261 10.4 16.5 0.00 0.00 0.00 49 1015.4
20260506223044 51 248 13.0 20.0 0.00 0.00 0.00 46 1015.4
20260506221543 51 234 13.9 20.0 0.00 0.00 0.00 48 1015.4
20260506220041 51 268 8.7 13.9 0.00 0.00 0.00 47 1015.4
20260506214556 51 257 7.0 17.4 0.00 0.00 0.00 47 1015.6
20260506213043 51 269 9.6 16.5 0.00 0.00 0.00 46 1015.7
20260506211537 50 232 11.3 18.2 0.00 0.00 0.00 48 1015.9
20260506210040 49 230 9.6 19.1 0.00 0.00 0.00 47 1016.1
20260506204536 50 229 11.3 20.9 0.00 0.00 0.00 46 1016.2
20260506203034 49 236 11.3 19.1 0.00 0.00 0.00 49 1016.4
20260506201532 49 237 8.7 19.1 0.00 0.00 0.00 48 1016.5
20260506200030 48 239 12.2 20.9 0.00 0.00 0.00 52 1016.7
20260506194527 47 240 15.6 19.1 0.00 0.00 0.00 52 1016.9
20260506193025 47 259 11.3 15.6 0.00 0.00 0.00 53 1016.9
20260506191523 47 234 9.6 22.6 0.00 0.00 0.00 52 1016.9
20260506190020 46 248 10.4 18.2 0.00 0.00 0.00 50 1017.0
20260506184526 46 261 13.0 19.1 0.00 0.00 0.00 53 1017.1
20260506183018 46 267 12.2 19.1 0.00 0.00 0.00 53 1017.1
20260506181517 46 249 13.0 21.7 0.00 0.00 0.00 56 1017.0
20260506180024 45 239 17.4 22.6 0.00 0.00 0.00 55 1017.1
20260506174516 45 249 14.8 20.0 0.00 0.00 0.00 53 1017.3
20260506173013 45 245 13.0 19.1 0.00 0.00 0.00 55 1017.2
20260506171513 45 267 13.0 19.1 0.00 0.00 0.00 55 1017.1
20260506170010 45 253 14.8 19.1 0.00 0.00 0.00 56 1017.2
20260506164512 45 258 13.0 20.9 0.00 0.00 0.00 58 1017.2
20260506163010 44 252 14.8 20.9 0.00 0.00 0.00 56 1017.2
20260506161511 44 253 12.2 22.6 0.00 0.00 0.00 58 1017.1
20260506160007 44 247 11.3 18.2 0.00 0.00 0.00 54 1017.0
20260506154505 44 254 12.2 17.4 0.00 0.00 0.00 60 1017.1
20260506153005 44 252 11.3 19.1 0.00 0.00 0.00 58 1017.0
20260506151504 44 272 6.1 14.8 0.00 0.00 0.00 57 1017.0
20260506150004 43 248 9.6 14.8 0.00 0.00 0.00 57 1016.9
20260506144501 43 263 8.7 15.6 0.00 0.00 0.00 58 1017.0
20260506143003 42 254 4.3 9.6 0.00 0.00 0.00 61 1017.0
20260506141605 41 241 4.3 10.4 0.00 0.00 0.00 62 1017.1
20260506140122 41 261 3.5 8.7 0.00 0.00 0.00 65 1017.0
20260506134600 40 248 3.5 6.1 0.00 0.00 0.00 64 1017.0
20260506133104 39 259 0.9 7.0 0.00 0.00 0.00 64 1016.9
20260506131557 39 257 1.7 7.8 0.00 0.00 0.00 67 1016.8
20260506130055 39 266 2.6 8.7 0.00 0.00 0.00 67 1016.8
20260506124556 38 259 0.9 7.8 0.00 0.00 0.00 69 1016.4
20260506123052 38 259 2.6 7.0 0.00 0.00 0.00 68 1016.4
20260506121551 38 250 3.5 8.7 0.00 0.00 0.00 69 1016.3
20260506120049 38 256 4.3 8.7 0.00 0.00 0.00 69 1016.0
20260506114553 38 259 3.5 8.7 0.00 0.00 0.00 69 1015.6
20260506113049 37 259 5.2 8.7 0.00 0.00 0.00 70 1015.6
20260506111542 37 265 2.6 7.0 0.00 0.00 0.00 69 1015.3
20260506110039 37 259 3.5 8.7 0.00 0.00 0.00 68 1015.1
20260506104545 38 258 3.5 7.8 0.00 0.00 0.00 68 1015.1
20260506103038 38 251 4.3 7.8 0.00 0.00 0.00 68 1015.1
20260506101544 38 260 2.6 6.1 0.00 0.00 0.00 68 1014.9
20260506100033 38 263 1.7 7.8 0.00 0.00 0.00 68 1014.7
20260506094533 38 257 5.2 8.7 0.00 0.00 0.00 67 1015.0